Location: Shenandoah County Park
(38.9356°N, 78.4524°W)
Time: 08:45:13
(UTC-04:00)

Vanguard 1 - Pass Details

Date: 04 February 2023
Orbit: 648 x 3832 km, 34.3° (Epoch: 01 April)

Event Time Altitude Azimuth Distance (km) Brightness Sun altitude
Exits shadow 06:29:12 - 257° (WSW) 3,330 12.2 -9.8°
Reaches altitude 10° 06:29:41 10° 256° (WSW) 3,181 12.1 -9.7°
Maximum altitude 06:37:45 70° 175° (S) 1,907 11.6 -8.2°
Drops below altitude 10° 06:53:16 10° 96° (E) 5,766 15.7 -5.3°
Sets 06:58:45 0° 95° (E) 7,216 16.6 -4.3°
